This demonstration page uses our WeatherBlox Daily Observations layout. Learn more.

Left ArrowRight Arrow

Hourly Observations for September 9, 2018

Temp ( °F °C ) Dew Point ( °F °C ) Humidity (%) Winds ( mph kmh ) Pressure ( in mb ) Visibility ( mi km ) Precip ( " mm )
12:57 am 00:57 Cloudy 61 16.1 60 15.6 97 97 S 7 11 30.08 1019 10 16 0.00 0.00
1:57 am 01:57 Cloudy 62 16.7 61 16.1 96 96 SSE 9 15 30.06 1018 7 11 0.00 0.00
2:57 am 02:57 Cloudy 62 16.7 61 16.1 96 96 SSE 10 17 30.04 1017 10 16 0.00 0.00
3:47 am 03:47 Partly Cloudy 61 16 59 15 94 94 SSE 7 11 30.03 1017 10 16 0.00 0.00
3:57 am 03:57 Mostly Clear 60 15.6 59 15 96 96 SSE 9 15 30.03 1017 10 16 0.00 0.00
4:10 am 04:10 Mostly Cloudy 61 16 59 15 94 94 S 8 13 30.03 1017 10 16 0.00 0.00
4:57 am 04:57 Cloudy 61 16.1 60 15.6 97 97 SSE 10 17 30.02 1017 10 16 0.00 0.00
5:57 am 05:57 Cloudy 61 16.1 59 15 93 93 S 15 24 30.01 1016 10 16 0.00 0.00
6:57 am 06:57 Cloudy 61 16.1 59 15 93 93 S 9 15 30.03 1017 10 16 0.00 0.00
7:24 am 07:24 Cloudy 61 16 59 15 94 94 S 10 17 30.03 1017 10 16 0.00 0.00
7:57 am 07:57 Cloudy 61 16.1 59 15 93 93 S 8 13 30.03 1017 10 16 0.00 0.00
8:11 am 08:11 Cloudy 61 16 59 15 94 94 SSE 14 22 30.03 1017 10 16 0.00 0.00
8:57 am 08:57 Cloudy 61 16.1 59 15 93 93 S 10 17 30.04 1017 10 16 0.00 0.00
9:45 am 09:45 Cloudy 63 17 59 15 88 88 S 12 19 30.03 1017 10 16 0.00 0.00
9:55 am 09:55 Cloudy 63 17 59 15 88 88 S 13 20 30.03 1017 10 16 0.00 0.00
9:57 am 09:57 Cloudy 62 16.7 59 15 90 90 S 9 15 30.05 1018 10 16 0.00 0.00
10:20 am 10:20 Cloudy 63 17 59 15 88 88 S 13 20 30.03 1017 10 16 0.00 0.00
10:33 am 10:33 Cloudy 64 18 59 15 83 83 S 14 22 30.03 1017 10 16 0.00 0.00
10:57 am 10:57 Cloudy 65 18.3 59 15 81 81 S 12 19 30.05 1018 10 16 0.00 0.00
11:14 am 11:14 Cloudy 64 18 57 14 78 78 S 13 20 30.03 1017 10 16 0.00 0.00
11:37 am 11:37 Cloudy 66 19 59 15 78 78 S 12 19 30.03 1017 10 16 0.00 0.00
11:51 am 11:51 Cloudy 66 19 59 15 78 78 S 13 20 30.03 1017 10 16 0.00 0.00
12:24 pm 12:24 Mostly Cloudy 70 21 59 15 69 69 SSE 15 24 29.97 1015 10 16 0.00 0.00
12:57 pm 12:57 Mostly Cloudy 71 21.7 59 15 66 66 S 16 26 30.01 1016 10 16 0.00 0.00
1:57 pm 13:57 Mostly Cloudy 72 22.2 59 15 64 64 S 14 22 30.00 1016 10 16 0.00 0.00
2:35 pm 14:35 Mostly Cloudy 72 22 59 15 65 65 SSE 13 20 29.94 1014 10 16 0.00 0.00
2:57 pm 14:57 Mostly Cloudy 73 22.8 59 15 62 62 S 15 24 29.97 1015 10 16 0.00 0.00
3:57 pm 15:57 Mostly Cloudy 74 23.3 59 15 60 60 S 15 24 29.95 1014 10 16 0.00 0.00
4:57 pm 16:57 Mostly Cloudy 74 23.3 59 15 60 60 SSE 12 19 29.93 1014 10 16 0.00 0.00
5:57 pm 17:57 Cloudy 71 21.7 59 15 66 66 S 12 19 29.94 1014 10 16 0.00 0.00
6:57 pm 18:57 Cloudy 70 21.1 59 15 68 68 S 10 17 29.94 1014 10 16 0.00 0.00
7:57 pm 19:57 Cloudy 68 20 60 15.6 76 76 SSE 8 13 29.94 1014 10 16 0.00 0.00
8:57 pm 20:57 Mostly Cloudy 64 17.8 60 15.6 87 87 SSE 9 15 29.96 1015 10 16 0.00 0.00
9:57 pm 21:57 Clear 62 16.7 59 15 90 90 SSE 9 15 29.97 1015 10 16 0.00 0.00
10:57 pm 22:57 Clear 62 16.7 58 14.4 86 86 SSE 10 17 29.96 1015 10 16 0.00 0.00
11:57 pm 23:57 Clear 60 15.6 58 14.4 93 93 S 7 11 29.98 1015 10 16 0.00 0.00

Powered by AerisWeather